Wind_Speed
13 14 15 16 16 17 17 18 19 19 20 20 21 22 22 22 22 22 23 23 23 23 23 23 23 23 24 24 24 25 25 26 26 27 27 27 27 26 27 28 29 30 31
16 16 17 18 19 20 21 21 22 23 24 25 25 25 26 26 26 25 25 25 26 26 26 25 25 25 25 25 26 26 26 27 28 28 29 28 28 28 27 28 28 29 31
17 18 19 21 22 22 23 24 25 26 27 28 28 28 28 28 28 28 28 28 28 28 28 28 28 27 28 28 28 28 28 29 29 29 30 30 30 31 30 30 30 30 31
19 20 22 23 24 25 26 27 28 28 29 30 31 31 31 30 30 30 30 30 30 30 30 30 30 30 30 31 31 31 31 31 31 31 31 32 32 33 33 33 33 33 33
21 22 24 25 26 27 28 29 29 30 31 32 32 33 33 32 32 32 33 33 32 32 32 32 33 33 33 34 34 34 34 33 33 33 33 33 34 35 35 34 34 34 34
23 24 25 26 27 28 29 30 31 32 33 34 34 34 35 35 35 35 36 35 35 35 35 35 36 36 37 37 37 38 37 37 36 36 36 36 36 37 36 36 36 36 36
25 26 27 27 29 30 31 32 34 35 36 36 37 38 38 38 39 39 40 40 39 39 39 39 40 40 40 41 41 41 41 40 40 40 39 39 39 39 39 38 38 38 38
28 29 30 30 31 32 34 35 36 38 39 39 40 41 42 42 43 44 44 45 44 44 44 44 44 44 44 44 45 44 44 43 43 43 42 42 42 42 41 41 40 40 40
32 32 33 34 35 37 38 39 41 41 42 43 43 45 45 45 47 47 48 49 49 48 48 48 48 48 48 48 49 48 47 46 46 46 46 45 45 44 44 43 43 43 42
35 35 36 37 38 40 41 43 44 45 46 47 48 48 49 50 51 51 52 53 53 53 53 53 52 52 52 52 52 51 51 50 50 50 49 48 47 47 46 46 46 45 44
37 38 39 40 42 43 44 45 46 48 49 50 51 52 53 54 55 55 56 57 58 57 57 57 57 56 56 56 56 56 55 54 54 53 52 51 50 49 48 48 48 48 46
37 39 41 42 44 45 46 48 49 50 51 53 54 55 56 57 58 59 60 61 62 62 62 62 62 62 61 61 61 60 59 59 58 57 56 55 54 52 51 50 50 49 48
38 40 42 44 45 46 48 49 51 52 54 55 57 58 60 61 63 64 64 65 66 67 67 67 67 67 67 66 65 64 64 63 62 60 59 58 57 55 54 53 52 51 50
39 41 43 44 46 48 49 51 53 55 57 59 60 62 63 65 66 67 68 69 70 71 71 71 71 71 71 70 69 68 67 66 65 64 62 60 59 57 56 54 53 52 50
41 43 44 46 48 50 52 55 57 59 61 62 64 65 67 68 69 70 71 72 72 73 73 73 72 72 72 71 71 70 69 68 66 65 63 61 59 57 55 54 53 52 51
43 45 47 49 52 54 56 58 60 62 64 65 67 68 70 71 72 72 72 73 73 73 73 72 72 72 71 71 70 69 68 67 65 63 62 60 58 56 54 53 52 51 50
47 49 51 53 56 58 60 62 64 65 66 68 69 70 70 71 71 72 71 71 71 71 71 70 70 69 67 67 66 65 64 62 61 60 59 57 56 55 54 53 52 51 49
51 53 55 58 60 62 64 66 67 67 68 68 68 68 68 67 66 66 67 66 65 65 65 65 64 62 60 59 58 57 57 56 55 54 54 54 54 53 52 51 50 49 48
55 58 60 61 63 65 66 66 66 66 66 65 64 64 63 62 61 61 60 60 58 57 57 55 54 52 51 50 49 48 48 48 48 48 48 48 48 48 48 47 47 47 46
59 60 61 63 63 64 63 63 62 62 62 61 59 58 57 56 55 54 53 52 51 49 48 45 44 42 42 41 41 40 39 40 40 42 43 43 44 44 44 44 43 42 41
60 61 61 60 59 59 58 58 58 57 56 54 53 52 51 49 48 47 45 44 42 41 38 36 34 34 34 34 34 34 34 35 35 36 38 39 39 38 38 38 38 38 38
58 57 56 55 55 54 54 53 52 51 49 48 46 45 44 42 40 38 35 34 33 31 29 28 26 25 24 23 23 23 24 25 27 28 30 31 32 33 34 34 34 34 34
53 52 51 50 50 49 48 47 46 44 42 41 39 36 34 33 31 28 26 25 24 23 21 20 18 18 18 17 17 17 18 18 19 21 23 24 25 27 28 29 30 31 31
47 46 45 45 45 44 43 41 40 38 36 33 31 29 27 25 23 22 21 19 18 16 15 15 14 15 15 14 14 14 15 16 16 17 19 20 22 24 25 26 27 27 29
41 40 41 41 40 39 38 36 35 32 29 26 24 22 20 19 18 17 15 15 14 13 12 12 11 11 11 11 11 12 12 13 14 15 17 17 18 20 22 23 24 25 27
38 38 38 37 35 33 31 30 27 24 21 19 17 16 15 14 13 13 13 13 12 11 11 11 10 10 10 10 10 10 10 11 11 13 15 16 18 19 21 23 24 26 27
Wind_Direction
250 251 252 254 257 260 263 265 267 269 271 272 274 275 276 277 279 280 282 282 283 284 285 285 286 287 287 288 289 291 292 292 292 290 288 285 282 279 277 275 274 272 270
257 257 257 258 260 263 266 268 270 272 273 275 276 277 278 279 280 281 283 283 283 283 284 284 285 285 287 287 288 289 291 290 290 289 288 286 284 282 279 276 274 273 272
261 260 261 262 263 265 268 270 271 273 275 277 278 279 280 282 283 283 283 283 284 284 284 284 285 285 286 287 288 289 289 289 288 287 286 285 284 282 280 278 276 275 274
264 265 266 266 268 269 270 272 274 276 278 280 281 282 283 283 283 283 283 283 284 284 284 285 286 286 286 287 288 289 289 289 288 286 286 285 284 283 281 279 278 277 276
266 266 267 269 270 272 273 275 277 279 280 281 282 283 283 284 284 283 283 283 284 284 285 285 286 286 287 288 288 288 288 288 287 286 285 285 284 283 282 280 279 279 278
268 267 269 271 272 273 274 276 278 280 280 280 281 282 283 284 283 283 283 283 283 284 285 284 285 286 287 287 287 287 286 286 286 286 285 285 284 283 282 281 280 279 279
269 270 271 273 275 276 277 279 280 280 281 281 282 282 283 283 283 284 283 284 283 283 284 284 285 285 286 285 284 284 284 284 284 284 284 284 284 283 282 281 280 279 280
269 270 273 275 276 278 279 279 280 281 281 281 282 284 284 284 284 284 284 285 284 283 284 285 285 284 284 284 283 283 282 282 283 283 283 283 283 283 283 282 281 280 279
268 270 273 275 277 279 280 281 282 282 282 282 282 283 283 283 284 284 284 284 284 284 284 284 283 283 283 282 282 281 281 281 281 281 281 281 281 282 282 281 281 281 280
266 270 273 276 278 279 280 281 282 282 282 283 283 283 283 283 284 284 284 284 284 283 283 282 282 282 282 281 281 280 280 280 280 280 279 279 280 280 281 281 281 280 280
271 274 277 279 280 281 282 282 283 283 284 284 284 284 284 285 285 285 284 284 283 283 282 282 282 281 280 279 279 279 279 278 278 278 278 278 278 278 279 279 279 279 279
274 277 279 280 281 282 283 283 284 284 285 284 285 285 285 285 284 283 283 282 282 282 281 281 280 279 279 278 278 278 277 277 276 276 276 277 277 277 277 277 277 277 277
278 280 281 282 282 283 284 285 285 285 285 285 285 285 284 284 283 283 282 282 281 281 280 279 279 278 278 277 277 276 275 275 275 275 275 275 275 276 276 276 275 275 275
282 283 283 284 285 286 286 286 286 286 286 286 285 285 284 284 283 283 283 282 281 280 280 279 278 277 277 276 275 274 273 273 273 273 273 273 272 273 273 273 273 273 273
285 286 287 287 288 288 288 288 288 288 287 287 287 286 286 285 284 284 283 282 282 281 280 279 278 277 276 275 274 273 272 271 271 271 271 270 269 269 270 270 270 270 270
289 289 290 290 290 290 290 290 290 289 289 289 289 288 287 287 286 285 284 283 283 282 281 280 279 277 276 275 274 272 271 270 269 268 268 267 265 266 266 266 266 267 268
292 292 292 293 293 293 292 292 291 291 290 290 289 289 288 288 287 286 285 285 284 283 283 282 280 279 277 275 273 272 269 268 266 265 264 263 262 261 262 262 262 263 264
294 294 294 294 294 294 294 293 293 292 292 291 291 291 290 289 289 289 288 287 286 286 285 284 282 280 277 275 273 271 268 265 263 261 260 259 259 258 258 259 258 259 260
297 297 297 296 296 296 295 295 295 294 294 294 294 293 293 292 291 291 290 289 289 288 287 285 283 280 277 275 273 270 267 264 260 258 256 255 255 256 256 255 255 257 258
298 298 298 297 297 297 297 297 297 297 297 297 297 296 295 295 294 293 292 292 290 289 288 286 283 280 277 275 273 269 266 262 258 256 252 251 252 253 253 252 253 255 255
299 299 299 299 299 299 299 300 300 300 300 299 299 298 298 297 296 296 295 294 293 291 289 287 284 281 279 276 273 269 266 261 257 253 251 248 247 248 249 250 251 252 252
300 300 300 301 301 302 302 303 303 302 302 302 302 301 300 300 300 300 299 298 297 295 292 289 285 282 281 279 274 271 266 259 256 250 245 243 243 243 246 248 249 250 252
301 301 302 303 304 305 306 306 306 306 306 306 306 305 305 305 305 305 305 304 303 301 299 295 290 287 284 280 275 272 267 263 254 245 240 242 243 243 244 245 246 249 250
303 304 305 306 308 309 310 310 310 310 310 309 309 309 309 309 311 311 312 312 311 309 306 303 298 294 290 283 276 270 269 262 253 248 244 241 240 241 244 245 247 249 251
306 308 309 310 311 312 313 314 314 314 314 314 314 313 313 316 318 320 321 321 320 318 315 311 307 304 298 287 281 275 270 264 259 254 248 244 243 244 247 249 249 251 253
309 311 312 313 314 316 317 319 320 321 323 324 326 328 328 329 330 331 332 332 333 330 325 322 318 313 307 295 287 281 276 270 264 257 252 250 250 252 253 253 253 254 254
Height
5863 5863 5864 5864 5865 5865 5865 5865 5864 5864 5864 5863 5863 5862 5861 5860 5858 5857 5856 5854 5853 5851 5850 5848 5846 5845 5843 5841 5839 5837 5835 5833 5830 5828 5827 5826 5825 5824 5823 5822 5821 5820 5819
5859 5859 5860 5860 5860 5860 5860 5860 5860 5859 5859 5858 5857 5856 5855 5853 5852 5850 5849 5847 5846 5844 5843 5841 5839 5838 5836 5834 5832 5830 5828 5826 5824 5821 5819 5818 5816 5815 5815 5814 5813 5812 5811
5855 5855 5855 5855 5855 5855 5855 5854 5854 5853 5852 5852 5851 5849 5848 5847 5845 5843 5842 5840 5838 5837 5835 5833 5832 5830 5828 5826 5824 5822 5820 5818 5816 5814 5811 5809 5808 5807 5806 5805 5804 5803 5802
5850 5850 5850 5850 5850 5849 5849 5848 5848 5847 5846 5845 5844 5842 5841 5839 5837 5835 5834 5832 5830 5828 5827 5825 5823 5821 5819 5817 5816 5813 5811 5809 5807 5805 5803 5801 5799 5797 5796 5795 5794 5793 5792
5844 5844 5844 5844 5844 5843 5842 5842 5841 5840 5838 5837 5836 5834 5832 5831 5829 5827 5825 5823 5821 5819 5818 5816 5814 5812 5810 5808 5806 5804 5802 5800 5798 5796 5794 5792 5790 5788 5786 5785 5784 5783 5782
5838 5838 5838 5837 5837 5836 5835 5834 5833 5831 5830 5828 5827 5825 5823 5822 5820 5817 5815 5813 5811 5810 5808 5806 5804 5802 5799 5797 5795 5793 5791 5789 5787 5785 5784 5782 5779 5777 5776 5775 5773 5772 5771
5832 5831 5831 5830 5829 5828 5827 5826 5824 5822 5821 5819 5817 5815 5813 5811 5809 5807 5804 5802 5800 5799 5797 5794 5792 5790 5788 5786 5784 5781 5779 5777 5776 5774 5772 5770 5768 5766 5765 5763 5762 5761 5760
5824 5824 5823 5822 5821 5819 5818 5817 5815 5813 5811 5809 5806 5804 5802 5800 5797 5795 5792 5789 5788 5786 5784 5782 5780 5778 5776 5773 5771 5769 5767 5765 5763 5761 5760 5758 5756 5754 5752 5751 5750 5749 5748
5816 5815 5814 5813 5812 5810 5809 5807 5804 5802 5800 5797 5794 5792 5789 5787 5784 5781 5778 5776 5774 5772 5770 5767 5765 5764 5762 5759 5756 5754 5753 5752 5750 5748 5747 5745 5743 5741 5739 5738 5737 5735 5735
5806 5806 5805 5804 5802 5800 5798 5796 5793 5790 5787 5785 5782 5779 5776 5773 5770 5767 5763 5760 5758 5757 5754 5752 5750 5748 5746 5743 5740 5739 5738 5737 5734 5733 5732 5731 5729 5727 5725 5724 5723 5721 5721
5797 5796 5795 5793 5791 5789 5786 5784 5781 5778 5774 5771 5768 5764 5761 5758 5754 5751 5748 5744 5741 5739 5737 5735 5733 5731 5729 5726 5724 5722 5722 5720 5718 5716 5715 5715 5714 5713 5711 5710 5708 5707 5707
5787 5786 5784 5782 5780 5777 5774 5771 5768 5764 5761 5757 5753 5749 5745 5741 5738 5734 5730 5726 5723 5720 5718 5716 5714 5712 5710 5707 5706 5705 5703 5701 5700 5699 5698 5698 5697 5697 5696 5695 5694 5693 5692
5777 5775 5773 5771 5768 5764 5761 5758 5754 5750 5746 5742 5737 5733 5729 5724 5719 5716 5712 5708 5703 5700 5698 5695 5693 5691 5688 5686 5685 5684 5682 5681 5680 5680 5680 5680 5680 5679 5679 5678 5677 5677 5677
5767 5764 5761 5758 5755 5751 5747 5743 5739 5734 5729 5725 5720 5715 5710 5705 5700 5695 5691 5686 5682 5678 5675 5672 5670 5668 5665 5663 5662 5661 5660 5660 5659 5660 5660 5661 5661 5661 5661 5661 5661 5661 5661
5755 5752 5749 5745 5741 5737 5732 5727 5722 5717 5711 5706 5700 5694 5689 5685 5679 5673 5667 5663 5658 5654 5650 5648 5645 5642 5640 5639 5638 5637 5636 5637 5637 5638 5639 5641 5642 5642 5643 5644 5644 5644 5645
5743 5739 5735 5730 5726 5721 5716 5710 5704 5698 5692 5685 5679 5673 5667 5661 5656 5650 5644 5639 5634 5629 5624 5622 5620 5617 5614 5613 5612 5612 5612 5613 5614 5616 5618 5620 5622 5623 5625 5626 5627 5628 5629
5729 5725 5720 5715 5709 5704 5698 5692 5685 5679 5672 5665 5658 5651 5644 5638 5631 5626 5620 5615 5610 5604 5599 5596 5593 5591 5589 5587 5587 5587 5588 5590 5591 5594 5596 5599 5601 5604 5606 5609 5610 5612 5613
5714 5709 5704 5698 5692 5685 5679 5671 5664 5657 5651 5643 5636 5628 5622 5616 5609 5602 5596 5591 5587 5581 5576 5572 5569 5567 5565 5564 5564 5564 5565 5567 5570 5573 5576 5579 5582 5585 5588 5591 5594 5596 5598
5699 5693 5686 5680 5673 5666 5658 5651 5643 5636 5628 5621 5614 5607 5600 5595 5589 5582 5576 5570 5565 5561 5556 5551 5548 5545 5544 5544 5543 5544 5545 5547 5550 5553 5557 5561 5564 5568 5571 5575 5578 5580 5583
5682 5676 5669 5661 5654 5646 5638 5631 5623 5616 5609 5601 5595 5588 5581 5576 5570 5564 5557 5551 5546 5542 5538 5534 5531 5529 5527 5527 5527 5528 5529 5531 5533 5536 5540 5544 5548 5552 5556 5560 5563 5566 5568
5665 5657 5650 5643 5635 5628 5620 5613 5606 5598 5591 5584 5578 5571 5564 5559 5553 5547 5541 5536 5531 5527 5523 5520 5518 5516 5514 5514 5514 5514 5515 5517 5519 5522 5526 5530 5534 5539 5543 5546 5549 5552 5555
5647 5640 5633 5626 5619 5612 5605 5597 5590 5582 5576 5569 5562 5556 5550 5544 5539 5534 5529 5524 5519 5515 5512 5509 5507 5506 5505 5504 5504 5505 5505 5507 5509 5511 5515 5519 5523 5527 5531 5534 5538 5541 5543
5632 5625 5618 5611 5605 5597 5590 5583 5576 5569 5562 5556 5550 5544 5539 5534 5529 5524 5519 5515 5511 5507 5505 5502 5501 5500 5499 5498 5498 5499 5500 5501 5502 5504 5507 5510 5514 5517 5521 5524 5528 5530 5533
5617 5611 5605 5598 5592 5585 5578 5571 5564 5558 5551 5545 5540 5535 5531 5526 5522 5517 5513 5509 5506 5503 5500 5498 5497 5495 5495 5494 5494 5495 5495 5496 5498 5499 5502 5504 5507 5510 5513 5516 5519 5521 5524
5606 5600 5594 5587 5581 5574 5568 5561 5555 5549 5543 5538 5533 5529 5525 5521 5517 5513 5510 5506 5503 5500 5498 5496 5495 5493 5492 5491 5491 5491 5492 5493 5494 5495 5497 5499 5501 5503 5506 5508 5511 5513 5514
5595 5589 5584 5578 5572 5566 5560 5554 5548 5542 5538 5533 5529 5525 5521 5518 5514 5511 5508 5505 5502 5499 5497 5495 5493 5492 5490 5489 5489 5489 5489 5490 5491 5492 5493 5495 5497 5498 5500 5501 5503 5504 5506